• Join FlightAware (Why Join?)
  • Login
  • US Flag 
08:04PM EST


 

Airport Tracker/Info


-or-


 

Live Flight TrackerFlight Track Log ✈ JUS327 ✈ 09-Apr-2013 ✈ KYIP - KRFD

Flight Track Log - Related Links

Times and Time Zones

All times are in EDT time to prevent confusion due to time zone crossing. See the JUS327 flight status page for this flight to view local times or setup timezone preferences in your user account.

Time Position Orientation Groundspeed Altitude Reporting Facility
EDT Latitude Longitude Course Direction KTS MPH feet Rate Location/Type
08:28PM 42.2456 -83.5172 345° North 144 166 1,700  Level Cleveland Center
08:29PM 42.2828 -83.5303 345° North 202 232 2,800 1,248 Climbing Cleveland Center
08:29PM 42.2900 -83.5753 282° West 183 211 3,800 1,875 Climbing Cleveland Center
08:30PM 42.3106 -83.6578 289° West 236 272 6,300 2,900 Climbing Cleveland Center
08:31PM 42.3292 -83.7458 286° West 242 278 9,600 2,500 Climbing Cleveland Center
08:32PM 42.3494 -83.8425 286° West 248 285 11,300 2,000 Climbing Cleveland Center
08:33PM 42.3753 -83.9561 287° West 286 329 13,600 2,550 Climbing Cleveland Center
08:34PM 42.4008 -84.0756 286° West 314 361 16,400 2,450 Climbing Cleveland Center
08:35PM 42.4222 -84.1950 284° West 326 375 18,500 2,100 Climbing Cleveland Center
08:36PM 42.4203 -84.3186 269° West 331 381 20,600 1,750 Climbing Cleveland Center
08:37PM 42.4328 -84.4489 277° West 341 392 22,000 700 Climbing Cleveland Center
08:38PM 42.4383 -84.5900 273° West 362 417 22,000 50 Level Cleveland Center
08:39PM 42.4494 -84.7456 276° West 374 430 22,100 916 Climbing Cleveland Center
08:41PM 42.4519 -84.9161 271° West 388 447 24,000 1,940 Climbing Chicago Center
08:42PM 42.4558 -85.0631 272° West 393 452 26,400 2,488 Climbing Chicago Center
08:43PM 42.4578 -85.1983 271° West 367 422 29,100 1,854 Climbing Chicago Center
08:44PM 42.4664 -85.3342 275° West 362 417 30,200 1,065 Climbing Chicago Center
08:45PM 42.4619 -85.4764 268° West 374 430 31,300 871 Climbing Chicago Center
08:46PM 42.4644 -85.6217 271° West 382 440 32,000 339 Climbing Chicago Center
08:47PM 42.4664 -85.7717 271° West 394 453 32,000  Level Chicago Center
08:48PM 42.4678 -85.9542 271° West 403 464 32,000  Level Chicago Center
08:49PM 42.4697 -86.1050 271° West 399 459 32,000  Level Chicago Center
08:50PM 42.4458 -86.2481 257° West 394 453 32,000  Level Chicago Center
08:51PM 42.4219 -86.3922 257° West 393 452 32,000  Level Chicago Center
08:52PM 42.4106 -86.5386 264° West 390 449 32,000 -484 Level Chicago Center
08:53PM 42.3936 -86.6872 261° West 391 450 31,000 -1,065 Descending Chicago Center
08:54PM 42.3747 -86.8331 260° West 394 453 29,800 -1,306 Descending Chicago Center
08:55PM 42.3533 -87.0072 261° West 395 455 28,300 -1,415 Descending Chicago Center
08:56PM 42.3319 -87.1486 258° West 390 449 26,900 -1,317 Descending Chicago Center
08:57PM 42.3119 -87.2975 260° West 400 460 25,600 -1,258 Descending Chicago Center
08:58PM 42.2936 -87.4436 260° West 398 458 24,300 -1,210 Descending Chicago Center
08:59PM 42.2756 -87.5900 261° West 398 458 23,100 -2,323 Descending Chicago Center
09:00PM 42.2544 -87.7453 260° West 361 415 19,500 -3,194 Descending Chicago Center
09:01PM 42.2361 -87.8703 259° West 345 397 16,500 -1,694 Descending Chicago Center
09:02PM 42.2167 -87.9922 258° West 336 387 16,000 -242 Descending Chicago Center
09:03PM 42.2517 -88.1003 294° West 323 372 16,000  Level Chicago Center
09:04PM 42.2972 -88.2042 301° West 326 375 16,000 -683 Level Chicago Center
09:05PM 42.3214 -88.3281 285° West 339 390 14,600 -1,887 Descending Chicago Center
09:06PM 42.3678 -88.4569 296° West 319 367 12,100 -1,887 Descending Chicago Center
09:07PM 42.3553 -88.5550 260° West 284 327 10,700 -1,268 Descending Chicago Center
09:08PM 42.3253 -88.6442 246° West 270 311 9,500 -878 Descending Chicago Center
09:09PM 42.3117 -88.7389 259° West 261 300 8,900 -242 Descending Chicago Center
09:11PM 42.2986 -88.8389 260° West 259 298 9,000 48 Climbing Chicago Center
09:12PM 42.2808 -88.9292 255° West 252 290 9,000 -341 Level Chicago Center
09:13PM 42.2631 -89.0144 254° West 237 273 8,300 -1,073 Descending Chicago Center
09:14PM 42.2386 -89.1103 251° West 233 268 6,800 -1,258 Descending Chicago Center
09:15PM 42.2244 -89.1844 256° West 209 241 5,700 -1,065 Descending Chicago Center
09:16PM 42.2094 -89.2575 255° West 204 235 4,600 -1,171 Descending Chicago Center
09:17PM 42.1914 -89.3175 248° West 183 211 3,300 -1,279 Descending Chicago Center
09:19PM 42.1954 -89.0972 118° Southeast  Level Estimated
09:26PM 42.1954 -89.0972 118° Southeast  Level Estimated
09:27PM 42.1954 -89.0972 118° Southeast  Level Estimated